KHWY

Details ICAO KHWY
Name WARRENTON FAUQUIER
Region United States
Timezone America/New_York (UTC-4.0)
Plans Departing 8
Arriving 2
Stats Elevation 337 ft / 103 m (AMSL)
Location 38.587973° -77.712418°
Runways 1
Magnetic Variation 10.371° W
Sunrise 2018-05-24 09:53:47 UTC / 2018-05-24 05:53:47 Local
Sunset 2018-05-25 00:24:30 UTC / 2018-05-24 20:24:30 Local
Advertisement - Login to hide

Runways

ID Width Length Bearing (true) Bearing (mag) Surface Threshold Offset Overrun Length
15 100 ft / 30 m 5,002 ft / 1,524 m 138.93° 149.30° Asphalt 0 ft / 0 m 0 ft / 0 m
33 100 ft / 30 m 5,002 ft / 1,524 m 318.94° 329.31° Asphalt 0 ft / 0 m 0 ft / 0 m

Approach Navaids

Runway Type Ident Frequency Range Bearing (true) Bearing (mag) Slope Elevation
15 Localiser IHWY 109.75 MHz 18 nm / 33 km 138.94° 149.31° - 337 ft / 103 m (AMSL)
15 DME IHWY 109.75 MHz 18 nm / 33 km - - - 337 ft / 103 m (AMSL)

Map

Weather


0- 5 10 15 20 25 30 35+ Temperature / ° C

Clouds and Precipitation
Forecast for 2018-05-24 18:00 UTC. Updated an hour ago

Ground ~20,000 ft ~40,000 ft Winds

METAR

KHWY 241755Z AUTO 00000KT 10SM CLR 28/04 A3019 RMK AO2 T02770036 10280 20180

TAF

Not found

Frequencies

Unicom 122.70 MHz CTAF/UNICOM
Approach 124.65 MHz POTOMAC APP/DEP
Warning: Do not use this data for real-world aviation or navigation. No guarantee of current accuracy is given.